Weather History for YPPH - December, 2013

Change the Weather History Date:

Friday, December 20, 2013

  Actual Average Record
Temperature  
Mean Temperature 71 °F -  
Max Temperature 82 °F 87 °F 107 °F (2002)
Min Temperature 60 °F 62 °F 48 °F (1997)
Cooling Degree Days 6    
Growing Degree Days 21 (Base 50)    
Moisture  
Dew Point 44 °F    
Average Humidity 37    
Maximum Humidity 63    
Minimum Humidity 12    
Precipitation  
Precipitation 0.00 in 0.01 in - ()
Sea Level Pressure  
Sea Level Pressure 30.07 in    
Wind  
Wind Speed 12 mph ()    
Max Wind Speed 22 mph    
Max Gust Speed 32 mph    
Visibility 14.7 miles    
Events      
Averages and records for this station are not official NWS values.
T = Trace of Precipitation, MM = Missing Value Source: Averaged Metar Reports

Daily Weather History Graph

Daily Weather History Graph

Search for Another Location

Airport or City:

Trip Planner

Search our weather history database for the weather conditions in past years. The results will help you decide how hot, cold, wet, or windy it might be!

Date:

Astronomy

Dec. 20, 2013 Rise Set
Actual Time 5:06 AM AWST 7:20 PM AWST
Civil Twilight 4:38 AM AWST 7:49 PM AWST
Nautical Twilight 4:03 AM AWST 8:23 PM AWST
Astronomical Twilight 3:26 AM AWST 9:01 PM AWST
Moon 9:13 PM AWST (12/20) 7:29 AM AWST (12/20)
Length of Visible Light 15h 11m
Length of Day
14h 14m
Waning Gibbous, 93% of the Moon is Illuminated
Dec 20
Waning Gibbous
Dec 25
Last Quarter
Jan 1
New
Jan 8
First Quarter
Jan 16
Full

Hourly Weather History & Observations

Time (AWST) Temp. Dew Point Humidity Pressure Visibility Wind Dir Wind Speed Gust Speed Precip Events Conditions
12:00 AM 67 °F 49 °F 42% 30.04 in 19 mi SE 10.4 mph - -   Partly Cloudy
12:00 AM 68.0 °F 50.0 °F 52% 30.04 in - SE 10.4 mph - N/A   Clear
12:30 AM 66.2 °F 50.0 °F 56% 30.04 in - ESE 9.2 mph - N/A   Clear
1:00 AM 66.2 °F 48.2 °F 52% 30.04 in - SE 6.9 mph - N/A   Clear
1:30 AM 64.4 °F 48.2 °F 56% 30.04 in - South 9.2 mph - N/A   Clear
2:00 AM 64 °F 48 °F 45% 30.04 in - South 8.1 mph - -  
2:00 AM 64.4 °F 48.2 °F 56% 30.04 in - South 8.1 mph - N/A   Clear
2:30 AM 64.4 °F 46.4 °F 52% 30.04 in - SE 9.2 mph - N/A   Clear
3:00 AM 63 °F 47 °F 45% 30.05 in 19 mi ESE 13.8 mph - -   Partly Cloudy
3:00 AM 62.6 °F 46.4 °F 55% 30.04 in - ESE 13.8 mph - N/A   Clear
3:30 AM 62.6 °F 46.4 °F 55% 30.04 in - East 12.7 mph - N/A   Clear
4:00 AM 62.6 °F 48.2 °F 59% 30.06 in - SE 10.4 mph - N/A   Clear
4:30 AM 60.8 °F 48.2 °F 63% 30.06 in - SSE 6.9 mph - N/A   Clear
5:00 AM 61 °F 48 °F 52% 30.09 in - SSE 13.8 mph - -  
5:00 AM 60.8 °F 48.2 °F 63% 30.06 in - SSE 13.8 mph - N/A   Clear
5:30 AM 60.8 °F 48.2 °F 63% 30.09 in - SE 10.4 mph - N/A   Clear
6:00 AM 63 °F 49 °F 50% 30.11 in 19 mi SE 11.5 mph - -   Partly Cloudy
6:00 AM 62.6 °F 48.2 °F 59% 30.09 in - SE 11.5 mph - N/A   Clear
6:30 AM 64.4 °F 48.2 °F 56% 30.09 in - SE 11.5 mph - N/A   Clear
7:00 AM 66.2 °F 46.4 °F 49% 30.09 in - ESE 12.7 mph - N/A   Clear
7:30 AM 68.0 °F 44.6 °F 43% 30.12 in - SE 16.1 mph - N/A   Clear
8:00 AM 68 °F 47 °F 35% 30.13 in - ESE 15.0 mph - -  
8:00 AM 68.0 °F 46.4 °F 46% 30.12 in 6.2 mi ESE 15.0 mph - N/A   Partly Cloudy
8:17 AM 69.8 °F 48.2 °F 46% 30.12 in 6.2 mi SE 17.3 mph 28.8 mph N/A   Partly Cloudy
8:30 AM 69.8 °F 46.4 °F 43% 30.12 in 6.2 mi SE 19.6 mph 31.1 mph N/A   Partly Cloudy
9:00 AM 72 °F 46 °F 28% 30.13 in 19 mi SE 15.0 mph - -   Partly Cloudy
9:00 AM 71.6 °F 46.4 °F 41% 30.12 in 6.2 mi SE 15.0 mph - N/A   Partly Cloudy
9:30 AM 73.4 °F 46.4 °F 38% 30.12 in - SE 17.3 mph - N/A   Clear
10:00 AM 73.4 °F 44.6 °F 36% 30.12 in - ESE 11.5 mph - N/A   Clear
10:30 AM 75.2 °F 46.4 °F 36% 30.09 in - ESE 17.3 mph - N/A   Clear
11:00 AM 75 °F 45 °F 24% 30.11 in - ESE 13.8 mph - -  
11:00 AM 75.2 °F 44.6 °F 34% 30.09 in - ESE 13.8 mph - N/A   Clear
11:30 AM 77.0 °F 44.6 °F 32% 30.09 in - SE 9.2 mph - N/A   Clear
12:00 PM 79 °F 45 °F 19% 30.09 in 19 mi SE 13.8 mph - -   Partly Cloudy
12:00 PM 78.8 °F 44.6 °F 30% 30.09 in - SE 13.8 mph - N/A   Clear
12:30 PM 80.6 °F 44.6 °F 28% 30.06 in - SE 15.0 mph - N/A   Clear
1:00 PM 78.8 °F 42.8 °F 28% 30.06 in - SE 17.3 mph - N/A   Clear
1:30 PM 80.6 °F 42.8 °F 26% 30.04 in - ESE 15.0 mph - N/A   Clear
2:00 PM 81 °F 42 °F 15% 30.05 in - SSE 17.3 mph - -  
2:00 PM 80.6 °F 42.8 °F 26% 30.04 in - SSE 17.3 mph - N/A   Clear
2:30 PM 80.6 °F 41.0 °F 24% 30.04 in - ESE 17.3 mph - N/A   Clear
2:40 PM 80.6 °F 41.0 °F 24% 30.04 in - SE 12.7 mph - N/A   Clear
3:00 PM 81 °F 39 °F 13% 30.04 in 19 mi ESE 15.0 mph - -   Partly Cloudy
3:00 PM 80.6 °F 39.2 °F 23% 30.04 in - ESE 17.3 mph - N/A   Clear
3:30 PM 82.4 °F 41.0 °F 23% 30.01 in - SE 18.4 mph - N/A   Clear
4:00 PM 80.6 °F 37.4 °F 21% 30.01 in - ESE 15.0 mph - N/A   Clear
4:30 PM 80.6 °F 39.2 °F 23% 30.01 in - ESE 12.7 mph - N/A   Clear
5:00 PM 81 °F 38 °F 12% 30.01 in - SE 16.1 mph - -  
5:00 PM 80.6 °F 37.4 °F 21% 30.01 in - SE 16.1 mph - N/A   Clear
5:30 PM 80.6 °F 37.4 °F 21% 30.01 in - ESE 18.4 mph - N/A   Clear
6:00 PM 79 °F 38 °F 14% 30.02 in 19 mi SE 17.3 mph - -   Partly Cloudy
6:00 PM 78.8 °F 39.2 °F 24% 30.01 in - SE 17.3 mph - N/A   Clear
6:30 PM 78.8 °F 37.4 °F 23% 30.04 in - SE 16.1 mph - N/A   Clear
7:00 PM 75.2 °F 41.0 °F 29% 30.04 in - SE 19.6 mph - N/A   Clear
7:30 PM 73.4 °F 41.0 °F 31% 30.06 in - SE 15.0 mph - N/A   Clear
8:00 PM 73 °F 41 °F 20% 30.08 in - ESE 11.5 mph - -  
8:00 PM 73.4 °F 41.0 °F 31% 30.06 in - ESE 11.5 mph - N/A   Clear
8:30 PM 71.6 °F 41.0 °F 33% 30.09 in - SE 10.4 mph - N/A   Clear
9:00 PM 71 °F 40 °F 21% 30.10 in 19 mi SE 10.4 mph - -   Partly Cloudy
9:00 PM 71.6 °F 39.2 °F 31% 30.09 in - SE 10.4 mph - N/A   Clear
9:30 PM 69.8 °F 41.0 °F 35% 30.09 in - ESE 12.7 mph - N/A   Clear
10:00 PM 69.8 °F 41.0 °F 35% 30.12 in - ESE 13.8 mph - N/A   Clear
10:30 PM 68.0 °F 42.8 °F 40% 30.12 in - ESE 18.4 mph - N/A   Clear
10:49 PM 68.0 °F 42.8 °F 40% 30.12 in - East 18.4 mph 29.9 mph N/A   Clear
11:00 PM 67 °F 43 °F 31% 30.12 in - East 20.7 mph - -  
11:00 PM 66.2 °F 42.8 °F 43% 30.12 in - East 20.7 mph - N/A   Clear
11:23 PM 66.2 °F 44.6 °F 46% 30.09 in - ESE 20.7 mph 32.2 mph N/A   Clear
11:30 PM 66.2 °F 42.8 °F 43% 30.09 in - ESE 21.9 mph - N/A   Clear